TimePST,TemperatureF,Dew PointF,Humidity,Sea Level PressureIn,VisibilityMPH,Wind Direction,Wind SpeedMPH,Gust SpeedMPH,PrecipitationIn,Events,Conditions,WindDirDegrees,DateUTC
12:56 AM,44.1,42.1,93,30.01,10.0,Calm,Calm,-,N/A,,Mostly Cloudy,0,2011-11-21 08:56:00
1:11 AM,42.8,42.8,100,30.00,10.0,Calm,Calm,-,N/A,,Mostly Cloudy,0,2011-11-21 09:11:00
1:19 AM,42.8,41.0,93,30.00,10.0,Calm,Calm,-,N/A,,Mostly Cloudy,0,2011-11-21 09:19:00
1:27 AM,42.8,41.0,93,30.00,10.0,Calm,Calm,-,N/A,,Overcast,0,2011-11-21 09:27:00
1:41 AM,42.8,41.0,93,30.00,10.0,ESE,3.5,-,N/A,,Mostly Cloudy,120,2011-11-21 09:41:00
1:56 AM,42.1,41.0,96,30.03,10.0,SSE,3.5,-,N/A,,Overcast,160,2011-11-21 09:56:00
2:56 AM,41.0,39.9,96,30.04,10.0,Calm,Calm,-,N/A,,Partly Cloudy,0,2011-11-21 10:56:00
3:21 AM,-9999,-9999,N/A,-9999,-9999.0,North,-9999.0,-,N/A,,Unknown,0,2011-11-21 11:21:00
3:56 AM,39.9,39.0,97,30.06,10.0,SW,5.8,-,N/A,,Partly Cloudy,220,2011-11-21 11:56:00
4:49 AM,37.4,35.6,93,30.05,2.5,Calm,Calm,-,N/A,,Partly Cloudy,0,2011-11-21 12:49:00
4:56 AM,37.0,36.0,96,30.07,2.0,Calm,Calm,-,N/A,,Partly Cloudy,0,2011-11-21 12:56:00
4:59 AM,37.4,35.6,93,30.05,6.0,Calm,Calm,-,N/A,,Partly Cloudy,0,2011-11-21 12:59:00
5:06 AM,37.4,35.6,93,30.05,2.0,Calm,Calm,-,N/A,,Partly Cloudy,0,2011-11-21 13:06:00
5:17 AM,35.6,35.6,100,30.05,10.0,Calm,Calm,-,N/A,,Partly Cloudy,0,2011-11-21 13:17:00
5:56 AM,35.1,34.0,96,30.10,10.0,South,5.8,-,N/A,,Clear,190,2011-11-21 13:56:00
6:56 AM,35.1,33.1,92,30.13,10.0,Calm,Calm,-,N/A,,Clear,0,2011-11-21 14:56:00
7:56 AM,41.0,39.0,93,30.14,10.0,West,3.5,-,N/A,,Clear,270,2011-11-21 15:56:00
8:56 AM,45.0,39.9,82,30.17,10.0,WSW,3.5,-,N/A,,Clear,250,2011-11-21 16:56:00
9:56 AM,50.0,37.9,63,30.18,10.0,Calm,Calm,-,N/A,,Clear,0,2011-11-21 17:56:00
10:56 AM,51.1,37.0,59,30.18,10.0,Calm,Calm,-,N/A,,Clear,0,2011-11-21 18:56:00
11:56 AM,53.1,35.1,50,30.17,10.0,Calm,Calm,-,N/A,,Clear,0,2011-11-21 19:56:00
12:56 PM,53.1,35.1,50,30.16,10.0,Calm,Calm,-,N/A,,Partly Cloudy,0,2011-11-21 20:56:00
1:56 PM,55.0,35.1,47,30.15,10.0,Calm,Calm,-,N/A,,Clear,0,2011-11-21 21:56:00
2:56 PM,55.9,34.0,44,30.14,10.0,Variable,3.5,-,N/A,,Partly Cloudy,0,2011-11-21 22:56:00
3:00 PM,-9999,-9999,N/A,-9999,-9999.0,North,-9999.0,-,N/A,,Unknown,0,2011-11-21 23:00:00
3:56 PM,55.0,34.0,45,30.17,10.0,Variable,3.5,-,N/A,,Clear,0,2011-11-21 23:56:00
4:56 PM,51.1,36.0,56,30.18,10.0,Calm,Calm,-,N/A,,Clear,0,2011-11-22 00:56:00
5:56 PM,48.0,39.0,71,30.21,10.0,Calm,Calm,-,N/A,,Clear,0,2011-11-22 01:56:00
6:56 PM,45.0,37.9,76,30.23,10.0,WSW,5.8,-,N/A,,Clear,240,2011-11-22 02:56:00
7:56 PM,42.1,37.9,85,30.25,10.0,SSW,4.6,-,N/A,,Clear,200,2011-11-22 03:56:00
8:56 PM,42.1,37.9,85,30.28,10.0,SSW,6.9,-,N/A,,Clear,210,2011-11-22 04:56:00
9:56 PM,39.9,37.0,89,30.27,10.0,SSW,6.9,-,N/A,,Clear,200,2011-11-22 05:56:00
10:56 PM,39.9,37.0,89,30.30,10.0,SSW,6.9,-,N/A,,Clear,210,2011-11-22 06:56:00
11:56 PM,39.9,36.0,86,30.29,10.0,SSW,8.1,-,N/A,,Clear,200,2011-11-22 07:56:00